This is the latest recevied weather packets stored in our database for station/object KK7KHO. If no packets are shown the sender has not sent any weather packets the latest 10 day(s).
| Time | Temp. | Humidity | Pressure | Rain* | Wind** | Luminosity | Snow |
|---|---|---|---|---|---|---|---|
| 1777793226 | 13.33° C | 81% | 1014 hPa | 0 mm | - | 0 W/m² | - |
| 1777792923 | 12.78° C | 81% | 1014 hPa | 0 mm | - | 0 W/m² | - |
| 1777792620 | 12.78° C | 82% | 1013.9 hPa | 0 mm | - | 0 W/m² | - |
| 1777792316 | 12.78° C | 82% | 1013.8 hPa | 0 mm | - | 0 W/m² | - |
| 1777792013 | 13.33° C | 81% | 1013.7 hPa | 0 mm | - | 0 W/m² | - |
| 1777791712 | 13.33° C | 81% | 1013.6 hPa | 0 mm | - | 0 W/m² | - |
| 1777791408 | 13.89° C | 79% | 1013.8 hPa | 0 mm | - | 0 W/m² | - |
| 1777791106 | 13.33° C | 79% | 1013.8 hPa | 0 mm | - | 0 W/m² | - |
| 1777790803 | 13.33° C | 80% | 1013.8 hPa | 0 mm | - | 0 W/m² | - |
| 1777790500 | 13.33° C | 80% | 1013.7 hPa | 0 mm | - | 0 W/m² | - |
| 1777790197 | 13.89° C | 79% | 1013.8 hPa | 0 mm | - | 0 W/m² | - |
| 1777789896 | 13.89° C | 78% | 1013.8 hPa | 0 mm | - | 0 W/m² | - |
| 1777789594 | 13.89° C | 78% | 1013.8 hPa | 0 mm | - | 0 W/m² | - |
| 1777789292 | 13.89° C | 80% | 1013.8 hPa | 0 mm | - | 0 W/m² | - |
| 1777788989 | 13.89° C | 79% | 1013.8 hPa | 0 mm | - | 0 W/m² | - |
| 1777788686 | 13.89° C | 78% | 1013.8 hPa | 0 mm | - | 0 W/m² | - |
| 1777788381 | 14.44° C | 76% | 1013.9 hPa | 0 mm | - | 0 W/m² | - |
| 1777788076 | 14.44° C | 77% | 1013.8 hPa | 0 mm | - | 0 W/m² | - |
| 1777787771 | 14.44° C | 78% | 1013.7 hPa | 0 mm | - | 0 W/m² | - |
| 1777787467 | 14.44° C | 78% | 1013.7 hPa | 0 mm | - | 0 W/m² | - |
| 1777787163 | 14.44° C | 78% | 1013.6 hPa | 0 mm | - | 0 W/m² | - |
| 1777786860 | 14.44° C | 78% | 1013.6 hPa | 0 mm | - | 0 W/m² | - |
| 1777786558 | 14.44° C | 76% | 1013.5 hPa | 0 mm | - | 0 W/m² | - |
| 1777786256 | 14.44° C | 78% | 1013.6 hPa | 0 mm | - | 0 W/m² | - |
| 1777785952 | 15° C | 77% | 1013.5 hPa | 0 mm | - | 0 W/m² | - |
* Rain latest hour (hover to see other rain measurements)
** Current wind speed in m/s (hover to see current wind gust speed)